Location: Newark
(31.5350°N, 35.0986°E)
Time: 03:39:30
(UTC+00:00)

Vanguard 1 - Pass Details

Date: 22 September 2019
Orbit: 653 x 3830 km, 34.2° (Epoch: 17 October)

Event Time Altitude Azimuth Distance (km) Brightness Sun altitude
Rises 20:19:44 0° 209° (SSW) 6,531 - -53.9°
Reaches altitude 10° 20:23:58 10° 202° (SSW) 5,880 - -54.4°
Maximum altitude 20:42:10 43° 138° (SE) 4,661 - -56.1°
Exits shadow 20:56:34 23° 86° (E) 5,818 13.8 -57.2°
Drops below altitude 10° 21:02:45 10° 76° (ENE) 6,661 14.2 -57.5°
Sets 21:07:51 0° 71° (ENE) 7,437 14.6 -57.8°
